Ontario, CA

10:26 PM PDT on July 23, 2017 (GMT -0700)
Ontario International

Weather History for KONT - February, 2014

Change the Weather History Date:

Tuesday, February 18, 2014

  Actual Average Record
Temperature  
Mean Temperature 62 °F 56 °F  
Max Temperature 71 °F 66 °F 78 °F (2015)
Min Temperature 52 °F 46 °F 39 °F (2012)
Degree Days  
Heating Degree Days 3 9  
Month to date heating degree days 113 179  
Since 1 July heating degree days 657 1068  
Cooling Degree Days 0 0  
Month to date cooling degree days 10 0  
Year to date cooling degree days 29 3  
Growing Degree Days 10 (Base 50)    
Moisture  
Dew Point 48 °F    
Average Humidity 65    
Maximum Humidity 93    
Minimum Humidity 37    
Precipitation  
Precipitation 0.00 in 0.14 in 0.63 in (2005)
Month to date precipitation 0.16 2.11  
Year to date precipitation 0.26 5.42  
Since 1 July precipitation 1.18  
Snow  
Snow 0.00 in - - ()
Month to date snowfall 0.0  
Year to date snowfall 0.0  
Snow Depth 0.00 in    
Sea Level Pressure  
Sea Level Pressure 30.01 in    
Wind  
Wind Speed 4 mph (SW)    
Max Wind Speed 9 mph    
Max Gust Speed 14 mph    
Visibility 5 miles    
Events      
T = Trace of Precipitation, MM = Missing Value Source: NWS Daily Summary

Daily Weather History Graph

Daily Weather History Graph

Search for Another Location

Airport or City:

Trip Planner

Search our weather history database for the weather conditions in past years. The results will help you decide how hot, cold, wet, or windy it might be!

Date:

Astronomy

Feb. 18, 2014 Rise Set
Actual Time 6:31 AM PST 5:37 PM PST
Civil Twilight 6:06 AM PST 6:02 PM PST
Nautical Twilight 5:37 AM PST 6:31 PM PST
Astronomical Twilight 5:08 AM PST 7:00 PM PST
Moon 9:22 PM PST (2/18) 8:18 AM PST (2/18)
Length of Visible Light 11h 56m
Length of Day
11h 05m
Waning Gibbous, 86% of the Moon is Illuminated
Feb 18
Waning Gibbous
Feb 22
Last Quarter
Mar 1
New
Mar 8
First Quarter
Mar 16
Full

Hourly Weather History & Observations

Time (PST) Temp. Dew Point Humidity Pressure Visibility Wind Dir Wind Speed Gust Speed Precip Events Conditions
12:53 AM 54.0 °F 50.0 °F 86% 30.03 in 2.5 mi Calm Calm - N/A   Overcast
1:53 AM 54.0 °F 50.0 °F 86% 30.01 in 2.5 mi NNW 3.5 mph - N/A   Overcast
2:53 AM 54.0 °F 50.0 °F 86% 30.01 in 3.0 mi Variable 3.5 mph - N/A   Overcast
3:14 AM 54.0 °F 50.0 °F 86% 30.03 in 3.0 mi Calm Calm - N/A   Overcast
3:53 AM 54.0 °F 50.0 °F 86% 30.00 in 3.0 mi Calm Calm - N/A   Overcast
4:53 AM 53.1 °F 50.0 °F 89% 30.02 in 3.0 mi Variable 5.8 mph - N/A   Overcast
5:53 AM 53.1 °F 48.9 °F 86% 30.02 in 3.0 mi Variable 4.6 mph - N/A   Overcast
6:33 AM 52.0 °F 48.9 °F 89% 30.04 in 3.0 mi SSW 4.6 mph - N/A   Overcast
6:49 AM 51.8 °F 48.2 °F 88% 30.04 in 3.0 mi South 4.6 mph - N/A   Overcast
6:53 AM 52.0 °F 48.0 °F 86% 30.04 in 3.0 mi SSE 4.6 mph - N/A   Overcast
7:53 AM 53.1 °F 48.0 °F 83% 30.06 in 4.0 mi SSW 3.5 mph - N/A   Haze
8:18 AM 54.0 °F 48.0 °F 80% 30.06 in 4.0 mi South 4.6 mph - N/A   Haze
8:53 AM 55.0 °F 48.0 °F 77% 30.06 in 4.0 mi Calm Calm - N/A   Haze
9:24 AM 55.9 °F 48.0 °F 75% 30.06 in 4.0 mi Calm Calm - N/A   Haze
9:53 AM 57.0 °F 48.0 °F 72% 30.04 in 4.0 mi SSW 3.5 mph - N/A   Haze
10:53 AM 62.1 °F 46.0 °F 56% 30.03 in 5.0 mi Variable 3.5 mph - N/A   Haze
11:53 AM 64.9 °F 45.0 °F 48% 30.01 in 6.0 mi West 8.1 mph - N/A   Haze
12:53 PM 68.0 °F 45.0 °F 43% 29.98 in 6.0 mi Variable 5.8 mph - N/A   Haze
1:53 PM 70.0 °F 42.1 °F 36% 29.96 in 7.0 mi WSW 6.9 mph - N/A   Mostly Cloudy
2:53 PM 70.0 °F 42.1 °F 36% 29.95 in 7.0 mi WSW 6.9 mph - N/A   Mostly Cloudy
3:53 PM 69.1 °F 41.0 °F 36% 29.93 in 9.0 mi Variable 4.6 mph - N/A   Overcast
4:53 PM 68.0 °F 45.0 °F 43% 29.95 in 8.0 mi WNW 9.2 mph - N/A   Overcast
5:53 PM 63.0 °F 48.9 °F 60% 29.95 in 10.0 mi WSW 6.9 mph - N/A   Overcast
6:53 PM 60.1 °F 48.9 °F 67% 29.97 in 10.0 mi West 9.2 mph - N/A   Mostly Cloudy
7:53 PM 57.9 °F 50.0 °F 75% 29.99 in 10.0 mi West 12.7 mph - N/A   Mostly Cloudy
8:53 PM 57.0 °F 50.0 °F 77% 30.01 in 9.0 mi SW 5.8 mph - N/A   Mostly Cloudy
9:53 PM 55.9 °F 50.0 °F 80% 30.01 in 8.0 mi WSW 4.6 mph - N/A   Mostly Cloudy
10:53 PM 55.9 °F 48.9 °F 77% 30.00 in 5.0 mi Calm Calm - N/A   Haze
11:53 PM 55.0 °F 48.9 °F 80% 29.98 in 6.0 mi SSW 3.5 mph - N/A   Haze